Home   Weather   Augusta   Past weeks

Flag for USA Past Weather in Augusta, Georgia, USA — Yesterday and Last 2 Weeks

Now
71 °F

Partly sunny.


Feels Like: 76 °F
Forecast: 56 / 78 °F
Wind: 8 mph from Northwest

Location: Daniel Field

Current Time: Apr 25, 2017 at 12:46:47 pm

Latest Report: Apr 25, 2017 at 12:22 pm


Visibility: 10 mi

Pressure: 29.73 "Hg

Humidity: 59%

Dew Point: 56 °F

Location of AugustaLocation

Past Weather in Augusta — Graph

°F

Augusta Temperature Yesterday

Maximum temperature yesterday: 63 °F (at 12:53 pm)
Minimum temperature yesterday: 57 °F (at 6:53 am)
Average temperature yesterday: 60 °F

High & Low Weather Summary for the Past Weeks

 TemperatureHumidityPressure
High88 °F (Apr 21, 4:53 pm)90% (Apr 24, 10:07 am)30.38 "Hg (Apr 24, 10:07 am)
Low57 °F (Apr 11, 6:53 am)27% (Apr 10, 5:53 pm)29.67 "Hg (Apr 25, 4:53 am)
Average71 °F62%30.08 "Hg
* Reported Apr 10 10:53 am — Apr 25 10:53 am, Augusta, Weather by CustomWeather, © 2017

Note: Actual official high and low records may vary slightly from our data, if they occured in-between our weather recording intervals... More about our weather records

Advertising

Augusta Weather History for the Previous 24 Hours

Scroll right to see more
 ConditionsComfort  
Time TempWeatherWind HumidityBarometerVisibility
10:53 am
Tue, Apr 25
69 °FSunny.7 mph61%29.74 "Hg10 mi
9:53 am65 °FPartly sunny.7 mph68%29.74 "Hg10 mi
9:31 am63 °FBroken clouds.6 mph75%29.75 "Hg10 mi
8:53 am61 °FOvercast.7 mph78%29.75 "Hg10 mi
7:53 am58 °FOvercast.7 mph84%29.72 "Hg10 mi
6:53 am58 °FOvercast.7 mph84%29.70 "Hg10 mi
6:27 am58 °FOvercast.6 mph81%29.70 "Hg10 mi
6:06 am58 °FMostly cloudy.9 mph81%29.70 "Hg10 mi
5:53 am58 °FLow clouds.7 mph81%29.68 "Hg10 mi
4:53 am57 °FLow clouds.7 mph83%29.67 "Hg10 mi
4:18 am57 °FLow clouds.7 mph83%29.69 "Hg10 mi
3:53 am57 °FLow clouds.7 mph83%29.68 "Hg10 mi
3:21 am57 °FLow clouds.7 mph83%29.68 "Hg10 mi
2:53 am57 °FLow clouds.10 mph83%29.68 "Hg10 mi
1:53 am57 °FLow clouds.14 mph83%29.68 "Hg10 mi
1:44 am57 °FLow clouds.12 mph83%29.69 "Hg10 mi
1:11 am57 °FLow clouds.15 mph87%29.69 "Hg10 mi
12:53 am57 °FLow clouds.10 mph87%29.68 "Hg10 mi
12:29 am57 °FLow clouds.10 mph87%29.71 "Hg10 mi
11:53 pm
Mon, Apr 24
57 °FLow clouds.9 mph87%29.71 "Hg10 mi
11:05 pm57 °FLow clouds.9 mph87%29.72 "Hg10 mi
10:32 pm58 °FFog.9 mph87%29.72 "Hg4 mi
9:53 pm58 °FFog.9 mph87%29.71 "Hg4 mi
9:17 pm58 °FLight rain. Fog.8 mph87%29.71 "Hg3 mi
9:07 pm58 °FLight rain. Fog.13 mph87%29.71 "Hg5 mi
7:53 pm58 °FFog.9 mph87%29.69 "Hg4 mi
7:31 pm59 °FLight rain. Mostly cloudy.9 mph84%29.69 "Hg7 mi
6:53 pm59 °FLight rain. Low clouds.8 mph84%29.69 "Hg10 mi
5:53 pm61 °FOvercast.9 mph72%29.67 "Hg10 mi
5:34 pm62 °FMostly cloudy.9 mph70%29.68 "Hg10 mi
5:13 pm62 °FMore clouds than sun.8 mph70%29.68 "Hg10 mi
4:53 pm63 °FMore clouds than sun.12 mph70%29.67 "Hg10 mi
3:53 pm63 °FOvercast.10 mph70%29.68 "Hg10 mi
2:53 pm63 °FOvercast.10 mph70%29.69 "Hg10 mi
2:18 pm63 °FOvercast.14 mph70%29.70 "Hg10 mi
2:06 pm63 °FOvercast.9 mph73%29.70 "Hg10 mi
1:05 pm63 °FMostly cloudy.12 mph75%29.71 "Hg10 mi
12:53 pm63 °FMostly cloudy.14 mph75%29.70 "Hg10 mi
Weather by CustomWeather, © 2017

See weather overviewHow to use our weather pages